When you browse on this site, cookies collect data to enhance your experience and personalize the content and advertising you see.
Visit our Privacy Policy to learn more. By continuing to use the site, you agree to this use of cookies and data.
  • In Hungary
  • List of Countries
  • For 7 days
  • Water Temperature
  • Satellite Maps
  • Weather Map
  • News
  • Weather Widgets
  • user-avatar
    Login

    Hourly Weather Wieliszewo

    Today, 10 December, Monday

    Time Temperature Precipitation Wind Pressure Humidity
    00:00 +3°C° 0.2 mm 5 mps 737 mmHg 90%
    01:00 +3°C° 0 mm 5 mps 738 mmHg 93%
    02:00 +3°C° 0.4 mm 6 mps 738 mmHg 87%
    03:00 +3°C° 0.4 mm 7 mps 739 mmHg 80%
    04:00 +2°C° 0.4 mm 8 mps 739 mmHg 74%
    05:00 +3°C° 0 mm 7 mps 740 mmHg 75%
    06:00 +2°C° 0 mm 7 mps 740 mmHg 76%
    07:00 +2°C° 0 mm 7 mps 741 mmHg 78%
    08:00 +2°C° 0 mm 7 mps 741 mmHg 76%
    09:00 +2°C° 0 mm 7 mps 742 mmHg 74%
    10:00 +2°C° 0 mm 7 mps 742 mmHg 72%
    11:00 +3°C° 0 mm 7 mps 742 mmHg 70%
    12:00 +3°C° 0 mm 7 mps 742 mmHg 67%
    13:00 +3°C° 0 mm 7 mps 743 mmHg 64%
    14:00 +3°C° 0 mm 6 mps 743 mmHg 67%
    15:00 +2°C° 0 mm 6 mps 743 mmHg 70%
    16:00 +1°C° 0 mm 5 mps 743 mmHg 73%
    17:00 +1°C° 0 mm 5 mps 743 mmHg 75%
    18:00 +1°C° 0 mm 5 mps 743 mmHg 77%
    19:00 +1°C° 0 mm 5 mps 744 mmHg 79%
    20:00 +1°C° 0.1 mm 5 mps 744 mmHg 80%
    21:00 +1°C° 0.1 mm 5 mps 744 mmHg 81%
    22:00 +1°C° 0.1 mm 5 mps 744 mmHg 82%
    23:00 +1°C° 0.3 mm 4 mps 744 mmHg 83%

    Tomorrow, 11 December, Tuesday

    Time Temperature Precipitation Wind Pressure Humidity
    00:00 +1°C° 0.3 mm 4 mps 744 mmHg 84%
    01:00 +2°C° 0.3 mm 3 mps 744 mmHg 85%
    02:00 +2°C° 0.2 mm 3 mps 744 mmHg 86%
    03:00 +3°C° 0.2 mm 2 mps 745 mmHg 88%
    04:00 +3°C° 0.2 mm 2 mps 745 mmHg 89%
    05:00 +2°C° 0.1 mm 2 mps 745 mmHg 90%
    06:00 +2°C° 0.1 mm 2 mps 746 mmHg 90%
    07:00 +1°C° 0.1 mm 3 mps 746 mmHg 91%
    08:00 +1°C° 0.1 mm 3 mps 747 mmHg 90%
    09:00 +1°C° 0.1 mm 3 mps 747 mmHg 89%
    10:00 +2°C° 0.1 mm 3 mps 748 mmHg 88%
    11:00 +2°C° 0.1 mm 3 mps 748 mmHg 86%
    12:00 +2°C° 0.1 mm 3 mps 749 mmHg 85%
    13:00 +3°C° 0.1 mm 4 mps 749 mmHg 83%
    14:00 +1°C° 0.1 mm 4 mps 750 mmHg 84%
    15:00 +1°C° 0.1 mm 4 mps 750 mmHg 85%
    16:00 +1°C° 0.1 mm 4 mps 751 mmHg 86%
    17:00 +2°C° 0 mm 3 mps 752 mmHg 85%
    18:00 +1°C° 0 mm 3 mps 752 mmHg 85%
    19:00 +1°C° 0 mm 3 mps 753 mmHg 85%
    20:00 +1°C° 0 mm 3 mps 753 mmHg 86%
    21:00 +2°C° 0 mm 2 mps 754 mmHg 88%
    22:00 +1°C° 0 mm 2 mps 754 mmHg 89%
    23:00 +1°C° 0 mm 2 mps 754 mmHg 89%

    Day after tomorrow, 12 December, Wednesday

    Time Temperature Precipitation Wind Pressure Humidity
    00:00 +1°C° 0 mm 2 mps 755 mmHg 89%
    01:00 +2°C° 0 mm 1 mps 755 mmHg 89%
    02:00 +2°C° 0 mm 1 mps 755 mmHg 89%
    03:00 +2°C° 0 mm 1 mps 756 mmHg 89%
    04:00 +2°C° 0 mm 1 mps 756 mmHg 89%
    05:00 +2°C° 0 mm 1 mps 756 mmHg 88%
    06:00 +2°C° 0 mm 1 mps 757 mmHg 88%
    07:00 +2°C° 0 mm 1 mps 757 mmHg 88%
    08:00 +1°C° 0.2 mm 2 mps 757 mmHg 87%
    09:00 +2°C° 0.2 mm 2 mps 758 mmHg 86%
    10:00 +2°C° 0.2 mm 2 mps 758 mmHg 85%
    11:00 +3°C° 0.3 mm 2 mps 758 mmHg 86%
    12:00 +2°C° 0.3 mm 3 mps 758 mmHg 86%
    13:00 +2°C° 0.3 mm 3 mps 758 mmHg 86%
    14:00 +1°C° 0.1 mm 3 mps 758 mmHg 88%
    15:00 +1°C° 0.1 mm 3 mps 758 mmHg 90%
    16:00 0°C° 0.1 mm 3 mps 758 mmHg 92%
    17:00 0°C° 0.1 mm 3 mps 759 mmHg 92%
    18:00 0°C° 0.1 mm 3 mps 759 mmHg 92%
    19:00 0°C° 0.1 mm 3 mps 759 mmHg 93%
    20:00 0°C° 0.1 mm 3 mps 759 mmHg 93%
    21:00 0°C° 0.1 mm 3 mps 759 mmHg 93%
    22:00 0°C° 0.1 mm 3 mps 759 mmHg 93%
    23:00 0°C° 0.1 mm 3 mps 760 mmHg 93%

    13 December, Thursday

    Time Temperature Precipitation Wind Pressure Humidity
    00:00 0°C° 0.1 mm 3 mps 760 mmHg 93%
    01:00 -1°C° 0.1 mm 3 mps 760 mmHg 94%
    02:00 -1°C° 0.1 mm 3 mps 760 mmHg 94%
    03:00 -1°C° 0.1 mm 3 mps 760 mmHg 94%
    04:00 -1°C° 0.1 mm 3 mps 760 mmHg 93%
    05:00 -1°C° 0.1 mm 3 mps 759 mmHg 93%
    06:00 -1°C° 0.1 mm 3 mps 759 mmHg 93%
    07:00 -1°C° 0.1 mm 2 mps 759 mmHg 92%
    08:00 0°C° 0 mm 3 mps 759 mmHg 90%
    09:00 0°C° 0 mm 3 mps 759 mmHg 89%
    10:00 0°C° 0 mm 3 mps 759 mmHg 87%
    11:00 0°C° 0.1 mm 3 mps 759 mmHg 85%
    12:00 +1°C° 0.1 mm 3 mps 759 mmHg 83%
    13:00 +1°C° 0.1 mm 3 mps 759 mmHg 81%
    14:00 +2°C° 0.1 mm 2 mps 759 mmHg 83%
    15:00 +1°C° 0.1 mm 2 mps 759 mmHg 85%
    16:00 +1°C° 0.1 mm 2 mps 759 mmHg 87%
    17:00 +1°C° 0.1 mm 2 mps 759 mmHg 87%
    18:00 -1°C° 0.1 mm 2 mps 759 mmHg 88%
    19:00 -1°C° 0.1 mm 3 mps 759 mmHg 89%
    20:00 -1°C° 0 mm 2 mps 759 mmHg 88%
    21:00 -1°C° 0 mm 2 mps 759 mmHg 88%
    22:00 -1°C° 0 mm 2 mps 759 mmHg 88%
    23:00 -1°C° 0 mm 2 mps 760 mmHg 88%

    14 December, Friday

    Time Temperature Precipitation Wind Pressure Humidity
    00:00 -1°C° 0 mm 2 mps 760 mmHg 87%
    01:00 -2°C° 0 mm 2 mps 760 mmHg 87%
    02:00 -2°C° 0 mm 2 mps 760 mmHg 87%
    03:00 -2°C° 0 mm 2 mps 760 mmHg 88%
    04:00 -2°C° 0 mm 2 mps 760 mmHg 88%
    05:00 -2°C° 0 mm 2 mps 760 mmHg 88%
    06:00 -2°C° 0 mm 2 mps 761 mmHg 88%
    07:00 -2°C° 0 mm 2 mps 761 mmHg 87%
    08:00 -2°C° 0 mm 2 mps 761 mmHg 86%
    09:00 -2°C° 0 mm 2 mps 762 mmHg 84%
    10:00 -1°C° 0 mm 3 mps 762 mmHg 82%
    11:00 -1°C° 0 mm 2 mps 763 mmHg 81%
    12:00 -1°C° 0 mm 2 mps 763 mmHg 80%
    13:00 -1°C° 0 mm 2 mps 763 mmHg 80%
    14:00 -1°C° 0 mm 2 mps 763 mmHg 82%
    15:00 -1°C° 0 mm 2 mps 763 mmHg 85%
    16:00 -2°C° 0 mm 2 mps 764 mmHg 88%
    17:00 -2°C° 0.1 mm 2 mps 764 mmHg 89%
    18:00 -2°C° 0.1 mm 2 mps 764 mmHg 89%
    19:00 -2°C° 0.1 mm 2 mps 765 mmHg 90%
    20:00 -2°C° 0 mm 2 mps 765 mmHg 90%
    21:00 -2°C° 0 mm 2 mps 765 mmHg 90%
    22:00 -2°C° 0 mm 2 mps 765 mmHg 90%
    23:00 -2°C° 0 mm 2 mps 766 mmHg 90%

    15 December, Saturday

    Time Temperature Precipitation Wind Pressure Humidity
    00:00 -2°C° 0 mm 2 mps 766 mmHg 91%
    01:00 -2°C° 0 mm 2 mps 766 mmHg 91%
    02:00 -2°C° 0 mm 2 mps 766 mmHg 91%
    03:00 -2°C° 0 mm 2 mps 766 mmHg 91%
    04:00 -2°C° 0 mm 2 mps 767 mmHg 91%
    05:00 -2°C° 0 mm 2 mps 767 mmHg 91%
    06:00 -2°C° 0 mm 2 mps 767 mmHg 91%
    07:00 -2°C° 0 mm 2 mps 767 mmHg 91%
    08:00 -2°C° 0 mm 3 mps 768 mmHg 90%
    09:00 -2°C° 0 mm 3 mps 768 mmHg 89%
    10:00 -2°C° 0 mm 3 mps 768 mmHg 87%
    11:00 -1°C° 0 mm 3 mps 768 mmHg 85%
    12:00 -1°C° 0 mm 3 mps 768 mmHg 82%
    13:00 -1°C° 0 mm 3 mps 768 mmHg 80%
    14:00 -1°C° 0 mm 3 mps 768 mmHg 82%
    15:00 -2°C° 0 mm 3 mps 768 mmHg 85%
    16:00 -2°C° 0 mm 3 mps 769 mmHg 88%
    17:00 -2°C° 0 mm 3 mps 769 mmHg 88%
    18:00 -4°C° 0 mm 3 mps 769 mmHg 87%
    19:00 -4°C° 0 mm 4 mps 769 mmHg 87%
    20:00 -4°C° 0 mm 4 mps 769 mmHg 86%
    21:00 -4°C° 0 mm 4 mps 769 mmHg 85%
    22:00 -5°C° 0 mm 5 mps 769 mmHg 84%
    23:00 -5°C° 0 mm 5 mps 768 mmHg 83%
    Show more